Regional Weather Roundup
Issued by NWS

Home | Current Version | Previous Version | Graphics & Text | Print | Product List | Glossary On
Versions: 1 2 3 4 5 6 7 8 9 10 11 12 13 14 15 16 17 18 19 20 21 22 23 24 25 26 27 28 29 30 31 32 33 34 35 36 37 38 39 40 41 42 43 44 45 46 47 48 49 50
000
ASUS43 KDMX 282107
RWRIA

WEATHER ROUNDUP FOR IOWA
NATIONAL WEATHER SERVICE DES MOINES IA
300 PM CST FRI NOV 28 2014

NOTE: "FAIR" INDICATES FEW OR NO CLOUDS BELOW 12,000 FEET WITH NO
SIGNIFICANT WEATHER AND/OR OBSTRUCTIONS TO VISIBILITY.

* - THESE STATIONS ARE NOT NWS STATIONS...THUS NOT UNDER NWS
QUALITY CONTROL.  THEY ALSO DO NOT REPORT WEATHER SUCH
AS PRECIPITATION OR FOG.

IAZ001>003-012>014-020>022-031>034-043>046-282200-
   NORTHWEST IOWA

CITY           SKY/WX    TMP DP  RH WIND       PRES   REMARKS
CARROLL *      SUNNY     43  32  65 SE8       29.74S
CHEROKEE *     SUNNY     37  32  81 SE8       29.70F WCI  31
DENISON *      SUNNY     45  34  65 SE7G14    29.69S
LE MARS *      SUNNY     41  32  70 SE6       29.68S
ORANGE CITY *  SUNNY     37  30  75 E12       29.68S WCI  30
SHELDON *      SUNNY     32  28  86 SE15      29.68F WCI  22
SIOUX CITY     SUNNY     48  31  51 SE10      29.67F
SPENCER        MOSUNNY   31  25  78 SE10      29.72F WCI  22
STORM LAKE *   SUNNY     34  30  86 E12       29.71F WCI  25
$$

IAZ055>058-069>071-079>083-090>094-282200-
   SOUTHWEST IOWA

CITY           SKY/WX    TMP DP  RH WIND       PRES   REMARKS
ATLANTIC *     SUNNY     45  36  70 S8        29.73S
AUDUBON *      SUNNY     43  30  61 S8        29.73F
CLARINDA *     SUNNY     52  32  46 S13       29.77F
COUNCIL BLFS * SUNNY     52  32  46 S13       29.69F
CRESTON *      SUNNY     46  34  61 S13       29.75F
HARLAN  *      SUNNY     46  37  71 SE10      29.75S
LAMONI         SUNNY     49  32  52 S14       29.78F
RED OAK *      SUNNY     50  32  50 S14       29.74S
SHENANDOAH *   SUNNY     52  32  46 S12       29.75F
$$

IAZ047>049-059>061-072>074-084-282200-
   CENTRAL IOWA

CITY           SKY/WX    TMP DP  RH WIND       PRES   REMARKS
AMES           MOSUNNY   32  24  72 E9        29.80F WCI  24
ANKENY *       SUNNY     41  30  65 SE7       29.80S
CHARITON *     SUNNY     45  32  61 S14       29.80S
DES MOINES     MOSUNNY   42  30  62 S13       29.79F
GRINNELL*      MOSUNNY   32  28  86 E10       29.83F WCI  24
KNOXVILLE *    SUNNY     43  30  61 S6        29.80R
MARSHALLTOWN   PTSUNNY   31  25  78 SE13      29.82F WCI  21
PELLA *        SUNNY     45  32  61 SE8       29.82F
PERRY *          N/A     39  32  75 SE8       29.77S WCI  34
$$

IAZ004>006-015-016-023>025-035-036-282200-
   NORTH CENTRAL IOWA

CITY           SKY/WX    TMP DP  RH WIND       PRES   REMARKS
ALGONA *       SUNNY     28  25  86 SE14      29.77S WCI  17
CLARION *      SUNNY     28  27  93 SE16      29.78F WCI  17
ESTHERVILLE    CLOUDY    25  22  88 SE14      29.74F WCI  13
FORT DODGE *   PTSUNNY   30  25  80 E9        29.78S WCI  22
MASON CITY     CLOUDY    26  21  81 SE13      29.81F WCI  15
FOREST CITY *    N/A     28  25  86 SE10      29.78F WCI  19
IOWA FALLS *     N/A     30  25  80 SE12      29.82S WCI  21
$$

IAZ007>011-017>019-026>030-037>042-050>054-066-282200-
   NORTHEAST IOWA

CITY           SKY/WX    TMP DP  RH WIND       PRES   REMARKS
CEDAR RAPIDS   MOSUNNY   30  25  81 E8        29.87F WCI  22
CHARLES CITY * MOSUNNY   28  23  80 SE14      29.82F WCI  17
CLINTON *      CLOUDY    30  25  80 SE8       29.94F WCI  23
DECORAH *      MOSUNNY   25  19  80 SE12      29.84S WCI  14
DUBUQUE        PTSUNNY   28  23  81 S10       29.90F WCI  19
MONTICELLO *   SUNNY     30  25  80 SE12      29.90F WCI  21
OELWEIN *      SUNNY     30  25  80 SE14      29.84F WCI  20
WATERLOO       MOSUNNY   30  25  81 S12       29.84F WCI  20
$$

IAZ064-065-067-068-078-282200-
   EAST CENTRAL IOWA

CITY           SKY/WX    TMP DP  RH WIND       PRES   REMARKS
DAVENPORT      CLOUDY    34  25  69 S8        29.92F WCI  27
IOWA CITY      PTSUNNY   33  27  78 E7        29.91S WCI  27
MT. PLEASANT * PTSUNNY   39  30  70 SE7       29.88S WCI  34
MUSCATINE *    SUNNY     36  28  75 SE6       29.91S WCI  31
QUAD CITIES    PTSUNNY   35  27  72 SE6       29.91F WCI  30
$$

IAZ062-063-075>077-085>089-095>099-282200-
   SOUTHEAST IOWA

CITY           SKY/WX    TMP DP  RH WIND       PRES   REMARKS
BURLINGTON     PTSUNNY   40  31  70 S9        29.88F WCI  34
FAIRFIELD *    SUNNY     41  30  65 S12       29.85F
FORT MADISON * SUNNY     45  34  65 S9        29.88F
KEOKUK *       SUNNY     46  32  57 S12G18    29.86F
OSKALOOSA *      N/A     39  32  75 SE9       29.83F WCI  33
CENTERVILLE *    N/A     46  32  57 S12       29.83S
OTTUMWA        MOSUNNY   40  29  64 SE9       29.83F WCI  34
WASHINGTON *   SUNNY     37  32  81 SE13      29.87F WCI  29
$$

ABBREVIATIONS USED IN REMARKS
   TC - TEMPERATURES IN CELSIUS
  WCI - WIND CHILL INDEX
   HX - HEAT INDEX
  VSB - VISIBILITY
$$




USA.gov is the U.S. government's official web portal to all federal, state and local government web resources and services.